Hourly Data Report for July 06, 2002

SHERBROOKE A
QUEBEC

45°26'00.000" N
71°41'00.000" W
241.40 m
7028124
71610
YSC

Download Data

Hourly Data (July 2002)
Hourly Data Report for July 6, 2002
TIME
LST
Temp Definition
°C
Dew Point Definition
°C
Rel Hum Definition
%
Precip. Amount Definition
mm

Wind Dir Definition
10's deg

Wind Spd Definition
km/h
Visibility Definition
km
Stn Press Definition
kPa
Hmdx Definition


Wind Chill Definition


Weather Definition


00:00 13.2 12.8 97   24 7 5.6 98.63      
01:00 13.8 12.8 94   25 7 12.9 98.58      
02:00 13.4 12.6 95   22 6 15.0 98.51      
03:00 13.4 12.8 96   24 7 12.9 98.51      
04:00 13.2 12.6 96   23 4 15.0 98.53      
05:00 13.7 12.6 93   25 11 15.0 98.50      
06:00 14.5 13.1 91   25 7 11.3 98.53      
07:00 14.9 13.3 90   26 11 19.3 98.54     Mostly Cloudy
08:00 17.0 13.2 78   27 15 24.1 98.53     Mainly Clear
09:00 19.1 13.0 68   28 20 24.1 98.50     Mainly Clear
10:00 19.4 12.6 65   29 20 8.0 98.47     Haze
11:00 18.2 11.5 65   30 13 9.7 98.47     Haze
12:00 17.4 11.5 68   31 7 9.7 98.51     Haze
13:00 17.2 13.3 78   31 4 9.7 98.49     Rain,Haze
14:00 18.0 11.0 64   36 15 24.1 98.48     Mostly Cloudy
15:00 18.4 11.9 66   33 9 24.1 98.49     Cloudy
16:00 19.1 11.5 61   33 13 24.1 98.49     Mostly Cloudy
17:00 19.1 12.6 66   32 4 15.0 98.49      
18:00 18.3 14.4 78   27 4 15.0 98.49      
19:00 17.2 13.7 80   30 9 15.0 98.53     Rain
20:00 16.0 13.4 85   26 4 1.0 98.53      
21:00 15.4 12.9 85   30 11 15.0 98.56      
22:00 15.3 12.9 86   31 9 15.0 98.61     Rain
23:00 14.5 13.0 91     0 15.0 98.58      

Notes on Data Quality.

Legend

  • E = Estimated
  • M = Missing
  • NA = Not Available*
  • [empty] = Indicates an unobserved value
Date modified: